FENGYUN 1C DEB

Satellite information

Favourite Embed

Satellite Type and Status

DEBRISIN ORBIT

Key statistics

Satellite FENGYUN 1C DEB at a glance.

Uptime

9613

Days in orbit

Revolutions

≈ 14.2

Per day

Orbit

SSO

Sun Synchronous Orbit

Inclination

98.5

Latest

Satellite identification and parameters

Extended collection of information and parameters for FENGYUN 1C DEB.

Object identification

Identified? True

Debris? True

Object name: FENGYUN 1C DEB

International designator: 1999-025DPC

Object number (NORAD): 35196

Object ID (CCSDS): 35196

Country: PEOPLES REPUBLIC OF CHINA (PRC)

Current information (Y/N): Y

RCS size: SMALL

Orbital parameters

Period: 101.461 minutes

Inclination: 98.5448 deg

SMA: 7205.986 km

Apoapsis: 982.637 km

Periapsis: 673.066 km

RAAN: 262.7464 deg

Eccentricy: 0.02148009

Argument of periapsis: 275.5755 deg

Mean anomaly: 111.632 deg

Mean motion: 14.19262132 rev/day

Mean motion (dot): 0.0000219 rev/day2

B* drag term: 0.00084714488 1/REarth

Two-line elements (TLE)

Creation date: Sept. 1, 2025, 10:16 a.m.

Reference frame: TEME

Reference center: EARTH

Epoch: Sept. 1, 2025, 12:17 a.m. UTC

TLE line 0: 0 FENGYUN 1C DEB

TLE line 1: 1 35196U 99025DPC 25244.01192170 .00002190 00000-0 84714-3 0 9996

TLE line 2: 2 35196 98.5448 262.7464 0214801 275.5755 111.6320 14.19262132876777

Live tracking on map

Real-time ground track for satellite FENGYUN 1C DEB.

In-orbit conjunctions

A list of the most updated potential collisions computed for object FENGYUN 1C DEB.

Target Orbit TCA Probability of collision Miss distance Type
CZ-6A DEB SSO 2025-08-02 10:48:58 0.0001166923 433.0 (m) DEBRIS
FENGYUN 1C DEB SSO 2025-07-09 14:03:20 0.000195993 441.0 (m) DEBRIS
COSMOS 1736 LEO 2025-02-04 02:39:54 0.0001038423 803.0 (m) PAYLOAD
COSMOS 2251 DEB LEO 2024-11-12 08:12:15 0.0002371262 902.0 (m) DEBRIS

Associated space launch

Chinese polar orbiting meteorological satellite

FENGYUN 1C DEB was lifted into orbit during the mission ‘Long March 4B | Feng Yun 1C’, on board a Long March 4B space rocket.

The launch took place on May 10, 1999, 1:33 a.m. from Launch Complex 7.

For more information about the launch, click the button.

Launch to space Long March 4B | Feng Yun 1C
Long March 4B | Feng Yun 1C

Agency: N/A

Status: Launch Successful

Launch date: May 10, 1999, 1:33 a.m. UTC

Rocket: Long March 4B

Launch pad: Launch Complex 7

Location: Taiyuan Satellite Launch Center, People's Republic of China

...

Latest news about this satellite

There are no fresh news available about this satellite. Check back as we update our databases every day.


Newsletter sign-up

Weekly statistics, charts and insights to help you stay on top of the space industry.